{"data":{"norad_id":61666,"intl_designator":"2024-193F","name":"STARLINK-32428","alt_names":[],"object_type":"PAYLOAD","status":"ACTIVE","operator":null,"country":"US","launch_date":"2024-10-26","launch_site_code":"AFETR","launch_vehicle":null,"mission":null,"orbit_class":"UNKNOWN","rcs_meters":null,"size_class":null,"mass_kg":null,"dimensions":null,"purposes":["comms"],"wikipedia_slug":null,"has_3d_model":false,"image_url":null,"decayed_at":null,"tle_current":{"epoch":"2026-09-21T16:48:52.481088Z","epoch_age_seconds":88342,"freshness":"FRESH","line1":"1 61666U 24193F   26264.70060742 -.00000267  00000+0  31549-5 0  9992","line2":"2 61666  53.1602 259.3619 0001380  86.9522 273.1638 15.31698879106557","mean_motion":15.31698879,"eccentricity":0.000138,"inclination_deg":53.1602,"raan_deg":259.3619,"arg_perigee_deg":86.9522,"mean_anomaly_deg":273.1638,"bstar":3.1549e-6,"rev_number":10655,"period_min":94.013256766247,"perigee_km":469.79819138387,"apogee_km":471.68848235684,"semimajor_km":6848.8803368704,"source":"CELESTRAK","updated_at":"2026-09-22T09:00:49.400834Z"}}}